Year,Month,Day,Hour,Minute,Value (Times are PST for temperature in C)
2014,12,16,00,00,7.10
2014,12,16,00,01,7.10
2014,12,16,00,02,7.10
2014,12,16,00,03,7.10
2014,12,16,00,04,7.10
2014,12,16,00,05,7.10
2014,12,16,00,06,7.10
2014,12,16,00,07,7.10
2014,12,16,00,08,7.10
2014,12,16,00,09,7.10
2014,12,16,00,10,7.10
2014,12,16,00,11,7.10
2014,12,16,00,12,7.10
2014,12,16,00,13,7.10
2014,12,16,00,14,7.10
2014,12,16,00,15,7.10
2014,12,16,00,16,7.10
2014,12,16,00,17,7.10
2014,12,16,00,18,7.10
2014,12,16,00,19,7.10
2014,12,16,00,20,7.10
2014,12,16,00,21,7.00
2014,12,16,00,22,7.00
2014,12,16,00,23,7.00
2014,12,16,00,24,7.00
2014,12,16,00,25,7.00
2014,12,16,00,26,7.00
2014,12,16,00,27,7.00
2014,12,16,00,28,7.00
2014,12,16,00,29,7.00
2014,12,16,00,30,6.90
2014,12,16,00,31,7.00
2014,12,16,00,32,7.00
2014,12,16,00,33,7.00
2014,12,16,00,34,7.00
2014,12,16,00,35,7.00
2014,12,16,00,36,7.00
2014,12,16,00,37,7.00
2014,12,16,00,38,7.00
2014,12,16,00,39,7.00
2014,12,16,00,40,7.00
2014,12,16,00,41,7.00
2014,12,16,00,42,7.00
2014,12,16,00,43,7.00
2014,12,16,00,44,6.90
2014,12,16,00,45,6.90
2014,12,16,00,46,6.90
2014,12,16,00,47,6.90
2014,12,16,00,48,6.90
2014,12,16,00,49,6.90
2014,12,16,00,50,6.90
2014,12,16,00,51,6.90
2014,12,16,00,52,6.90
2014,12,16,00,53,6.90
2014,12,16,00,54,6.90
2014,12,16,00,55,6.90
2014,12,16,00,56,6.90
2014,12,16,00,57,6.80
2014,12,16,00,58,6.80
2014,12,16,00,59,6.80
2014,12,16,01,00,6.80
2014,12,16,01,01,6.80
2014,12,16,01,02,6.80
2014,12,16,01,03,6.80
2014,12,16,01,04,6.80
2014,12,16,01,05,6.80
2014,12,16,01,06,6.80
2014,12,16,01,07,6.80
2014,12,16,01,08,6.80
2014,12,16,01,09,6.70
2014,12,16,01,10,6.70
2014,12,16,01,11,6.70
2014,12,16,01,12,6.70
2014,12,16,01,13,6.70
2014,12,16,01,14,6.70
2014,12,16,01,15,6.70
2014,12,16,01,16,6.70
2014,12,16,01,17,6.70
2014,12,16,01,18,6.70
2014,12,16,01,19,6.70
2014,12,16,01,20,6.70
2014,12,16,01,21,6.70
2014,12,16,01,22,6.70
2014,12,16,01,23,6.70
2014,12,16,01,24,6.70
2014,12,16,01,25,6.70
2014,12,16,01,26,6.70
2014,12,16,01,27,6.70
2014,12,16,01,28,6.70
2014,12,16,01,29,6.70
2014,12,16,01,30,6.70
2014,12,16,01,31,6.70
2014,12,16,01,32,6.70
2014,12,16,01,33,6.70
2014,12,16,01,34,6.70
2014,12,16,01,35,6.70
2014,12,16,01,36,6.80
2014,12,16,01,37,6.80
2014,12,16,01,38,6.80
2014,12,16,01,39,6.80
2014,12,16,01,40,6.80
2014,12,16,01,41,6.80
2014,12,16,01,42,6.80
2014,12,16,01,43,6.80
2014,12,16,01,44,6.80
2014,12,16,01,45,6.90
2014,12,16,01,46,6.90
2014,12,16,01,47,6.90
2014,12,16,01,48,6.90
2014,12,16,01,49,6.90
2014,12,16,01,50,6.90
2014,12,16,01,51,7.00
2014,12,16,01,52,7.00
2014,12,16,01,53,7.00
2014,12,16,01,54,7.00
2014,12,16,01,55,7.10
2014,12,16,01,56,7.10
2014,12,16,01,57,7.10
2014,12,16,01,58,7.10
2014,12,16,01,59,7.10
2014,12,16,02,00,7.10
2014,12,16,02,01,7.10
2014,12,16,02,02,7.10
2014,12,16,02,03,7.10
2014,12,16,02,04,7.10
2014,12,16,02,05,7.10
2014,12,16,02,06,7.10
2014,12,16,02,07,7.20
2014,12,16,02,08,7.20
2014,12,16,02,09,7.20
2014,12,16,02,10,7.20
2014,12,16,02,11,7.20
2014,12,16,02,12,7.20
2014,12,16,02,13,7.10
2014,12,16,02,14,7.10
2014,12,16,02,15,7.10
2014,12,16,02,16,7.10
2014,12,16,02,17,7.10
2014,12,16,02,18,7.10
2014,12,16,02,19,7.10
2014,12,16,02,20,7.10
2014,12,16,02,21,7.10
2014,12,16,02,22,7.10
2014,12,16,02,23,7.10
2014,12,16,02,24,7.10
2014,12,16,02,25,7.10
2014,12,16,02,26,7.10
2014,12,16,02,27,7.10
2014,12,16,02,28,7.10
2014,12,16,02,29,7.10
2014,12,16,02,30,7.10
2014,12,16,02,31,7.10
2014,12,16,02,32,7.10
2014,12,16,02,33,7.10
2014,12,16,02,34,7.10
2014,12,16,02,35,7.10
2014,12,16,02,36,7.10
2014,12,16,02,37,7.10
2014,12,16,02,38,7.10
2014,12,16,02,39,7.10
2014,12,16,02,40,7.10
2014,12,16,02,41,7.10
2014,12,16,02,42,7.10
2014,12,16,02,43,7.10
2014,12,16,02,44,7.10
2014,12,16,02,45,7.10
2014,12,16,02,46,7.10
2014,12,16,02,47,7.10
2014,12,16,02,48,7.10
2014,12,16,02,49,7.00
2014,12,16,02,50,7.00
2014,12,16,02,51,7.00
2014,12,16,02,52,7.00
2014,12,16,02,53,7.00
2014,12,16,02,54,7.00
2014,12,16,02,55,6.90
2014,12,16,02,56,6.90
2014,12,16,02,57,6.90
2014,12,16,02,58,6.90
2014,12,16,02,59,6.90
2014,12,16,03,00,6.90
2014,12,16,03,01,6.90
2014,12,16,03,02,6.90
2014,12,16,03,03,6.90
2014,12,16,03,04,6.80
2014,12,16,03,05,6.80
2014,12,16,03,06,6.80
2014,12,16,03,07,6.80
2014,12,16,03,08,6.80
2014,12,16,03,09,6.80
2014,12,16,03,10,6.80
2014,12,16,03,11,6.80
2014,12,16,03,12,6.80
2014,12,16,03,13,6.90
2014,12,16,03,14,6.90
2014,12,16,03,15,6.90
2014,12,16,03,16,6.90
2014,12,16,03,17,6.90
2014,12,16,03,18,6.90
2014,12,16,03,19,6.90
2014,12,16,03,20,6.90
2014,12,16,03,21,6.90
2014,12,16,03,22,6.90
2014,12,16,03,23,6.90
2014,12,16,03,24,6.80
2014,12,16,03,25,6.80
2014,12,16,03,26,6.80
2014,12,16,03,27,6.80
2014,12,16,03,28,6.80
2014,12,16,03,29,6.80
2014,12,16,03,30,6.80
2014,12,16,03,31,6.80
2014,12,16,03,32,6.80
2014,12,16,03,33,6.80
2014,12,16,03,34,6.80
2014,12,16,03,35,6.80
2014,12,16,03,36,6.80
2014,12,16,03,37,6.80
2014,12,16,03,38,6.80
2014,12,16,03,39,6.80
2014,12,16,03,40,6.80
2014,12,16,03,41,6.80
2014,12,16,03,42,6.80
2014,12,16,03,43,6.80
2014,12,16,03,44,6.80
2014,12,16,03,45,6.80
2014,12,16,03,46,6.80
2014,12,16,03,47,6.90
2014,12,16,03,48,6.90
2014,12,16,03,49,6.90
2014,12,16,03,50,6.90
2014,12,16,03,51,6.90
2014,12,16,03,52,6.90
2014,12,16,03,53,6.90
2014,12,16,03,54,6.90
2014,12,16,03,55,6.90
2014,12,16,03,56,6.90
2014,12,16,03,57,6.80
2014,12,16,03,58,6.80
2014,12,16,03,59,6.80
2014,12,16,04,00,6.80
2014,12,16,04,01,6.80
2014,12,16,04,02,6.80
2014,12,16,04,03,6.80
2014,12,16,04,04,6.80
2014,12,16,04,05,6.80
2014,12,16,04,06,6.80
2014,12,16,04,07,6.70
2014,12,16,04,08,6.70
2014,12,16,04,09,6.70
2014,12,16,04,10,6.70
2014,12,16,04,11,6.70
2014,12,16,04,12,6.70
2014,12,16,04,13,6.70
2014,12,16,04,14,6.70
2014,12,16,04,15,6.70
2014,12,16,04,16,6.60
2014,12,16,04,17,6.60
2014,12,16,04,18,6.60
2014,12,16,04,19,6.60
2014,12,16,04,20,6.60
2014,12,16,04,21,6.60
2014,12,16,04,22,6.60
2014,12,16,04,23,6.60
2014,12,16,04,24,6.50
2014,12,16,04,25,6.50
2014,12,16,04,26,6.50
2014,12,16,04,27,6.50
2014,12,16,04,28,6.50
2014,12,16,04,29,6.50
2014,12,16,04,30,6.50
2014,12,16,04,31,6.50
2014,12,16,04,32,6.50
2014,12,16,04,33,6.60
2014,12,16,04,34,6.60
2014,12,16,04,35,6.60
2014,12,16,04,36,6.60
2014,12,16,04,37,6.60
2014,12,16,04,38,6.60
2014,12,16,04,39,6.60
2014,12,16,04,40,6.60
2014,12,16,04,41,6.60
2014,12,16,04,42,6.60
2014,12,16,04,43,6.60
2014,12,16,04,44,6.60
2014,12,16,04,45,6.60
2014,12,16,04,46,6.60
2014,12,16,04,47,6.60
2014,12,16,04,48,6.60
2014,12,16,04,49,6.60
2014,12,16,04,50,6.60
2014,12,16,04,51,6.60
2014,12,16,04,52,6.60
2014,12,16,04,53,6.60
2014,12,16,04,54,6.60
2014,12,16,04,55,6.60
2014,12,16,04,56,6.60
2014,12,16,04,57,6.60
2014,12,16,04,58,6.60
2014,12,16,04,59,6.60
2014,12,16,05,00,6.60
2014,12,16,05,01,6.60
2014,12,16,05,02,6.60
2014,12,16,05,03,6.60
2014,12,16,05,04,6.60
2014,12,16,05,05,6.60
2014,12,16,05,06,6.60
2014,12,16,05,07,6.60
2014,12,16,05,08,6.60
2014,12,16,05,09,6.60
2014,12,16,05,10,6.60
2014,12,16,05,11,6.60
2014,12,16,05,12,6.60
2014,12,16,05,13,6.60
2014,12,16,05,14,6.60
2014,12,16,05,15,6.60
2014,12,16,05,16,6.60
2014,12,16,05,17,6.60
2014,12,16,05,18,6.60
2014,12,16,05,19,6.60
2014,12,16,05,20,6.60
2014,12,16,05,21,6.60
2014,12,16,05,22,6.60
2014,12,16,05,23,6.60
2014,12,16,05,24,6.60
2014,12,16,05,25,6.60
2014,12,16,05,26,6.60
2014,12,16,05,27,6.60
2014,12,16,05,28,6.70
2014,12,16,05,29,6.70
2014,12,16,05,30,6.60
2014,12,16,05,31,6.60
2014,12,16,05,32,6.60
2014,12,16,05,33,6.60
2014,12,16,05,34,6.60
2014,12,16,05,35,6.60
2014,12,16,05,36,6.60
2014,12,16,05,37,6.60
2014,12,16,05,38,6.60
2014,12,16,05,39,6.60
2014,12,16,05,40,6.60
2014,12,16,09,03,6.80
2014,12,16,09,04,6.80
2014,12,16,09,05,6.80
2014,12,16,09,06,6.80
2014,12,16,09,07,6.80
2014,12,16,09,08,6.80
2014,12,16,09,09,6.80
2014,12,16,09,10,6.80
2014,12,16,09,11,6.90
2014,12,16,09,12,6.90
2014,12,16,09,13,6.90
2014,12,16,09,14,6.90
2014,12,16,09,15,6.90
2014,12,16,09,16,6.90
2014,12,16,09,17,6.90
2014,12,16,09,18,6.90
2014,12,16,09,19,6.90
2014,12,16,09,20,6.90
2014,12,16,09,21,6.90
2014,12,16,09,22,6.90
2014,12,16,09,23,6.90
2014,12,16,09,24,6.90
2014,12,16,09,25,7.00
2014,12,16,09,26,7.00
2014,12,16,09,27,7.00
2014,12,16,09,28,7.00
2014,12,16,09,29,7.00
2014,12,16,09,30,7.00
2014,12,16,09,31,7.10
2014,12,16,09,32,7.10
2014,12,16,09,33,7.10
2014,12,16,09,34,7.10
2014,12,16,09,35,7.10
2014,12,16,09,36,7.10
2014,12,16,09,37,7.10
2014,12,16,09,38,7.10
2014,12,16,09,39,7.10
2014,12,16,09,40,7.10
2014,12,16,09,41,7.10
2014,12,16,09,42,7.20
2014,12,16,09,43,7.20
2014,12,16,09,44,7.20
2014,12,16,09,45,7.20
2014,12,16,09,46,7.20
2014,12,16,09,47,7.20
2014,12,16,09,48,7.20
2014,12,16,09,49,7.20
2014,12,16,09,50,7.20
2014,12,16,09,51,7.20
2014,12,16,09,52,7.20
2014,12,16,09,53,7.20
2014,12,16,09,54,7.20
2014,12,16,09,55,7.20
2014,12,16,09,56,7.20
2014,12,16,09,57,7.20
2014,12,16,09,58,7.20
2014,12,16,09,59,7.30
2014,12,16,10,00,7.30
2014,12,16,10,01,7.30
2014,12,16,10,02,7.30
2014,12,16,10,03,7.30
2014,12,16,10,04,7.30
2014,12,16,10,05,7.30
2014,12,16,10,06,7.30
2014,12,16,10,07,7.30
2014,12,16,10,08,7.30
2014,12,16,10,09,7.30
2014,12,16,10,10,7.30
2014,12,16,10,11,7.30
2014,12,16,10,12,7.30
2014,12,16,10,13,7.30
2014,12,16,10,14,7.30
2014,12,16,10,15,7.40
2014,12,16,10,16,7.40
2014,12,16,10,17,7.40
2014,12,16,10,18,7.40
2014,12,16,10,19,7.40
2014,12,16,10,20,7.40
2014,12,16,10,21,7.40
2014,12,16,10,22,7.40
2014,12,16,10,23,7.40
2014,12,16,10,24,7.40
2014,12,16,10,25,7.50
2014,12,16,10,26,7.50
2014,12,16,10,27,7.50
2014,12,16,10,28,7.50
2014,12,16,10,29,7.50
2014,12,16,10,30,7.60
2014,12,16,10,31,7.50
2014,12,16,10,32,7.60
2014,12,16,10,33,7.60
2014,12,16,10,34,7.60
2014,12,16,10,35,7.60
2014,12,16,10,36,7.60
2014,12,16,10,37,7.60
2014,12,16,10,38,7.60
2014,12,16,10,39,7.60
2014,12,16,10,40,7.60
2014,12,16,10,41,7.70
2014,12,16,10,42,7.70
2014,12,16,10,43,7.70
2014,12,16,10,44,7.70
2014,12,16,10,45,7.70
2014,12,16,10,46,7.70
2014,12,16,10,47,7.70
2014,12,16,10,48,7.70
2014,12,16,10,49,7.70
2014,12,16,10,50,7.70
2014,12,16,10,51,7.70
2014,12,16,10,52,7.70
2014,12,16,10,53,7.70
2014,12,16,10,54,7.80
2014,12,16,10,55,7.80
2014,12,16,10,56,7.80
2014,12,16,10,57,7.80
2014,12,16,10,58,7.80
2014,12,16,10,59,7.80
2014,12,16,11,00,7.80
2014,12,16,11,01,7.80
2014,12,16,11,02,7.80
2014,12,16,11,03,7.80
2014,12,16,11,04,7.90
2014,12,16,11,05,7.90
2014,12,16,11,06,7.90
2014,12,16,11,07,7.90
2014,12,16,11,08,7.90
2014,12,16,11,09,7.90
2014,12,16,11,10,8.00
2014,12,16,11,11,8.00
2014,12,16,11,12,8.00
2014,12,16,11,13,8.10
2014,12,16,11,14,8.10
2014,12,16,11,15,8.10
2014,12,16,11,16,8.10
2014,12,16,11,17,8.20
2014,12,16,11,18,8.20
2014,12,16,11,19,8.20
2014,12,16,11,20,8.30
2014,12,16,11,21,8.30
2014,12,16,11,22,8.30
2014,12,16,11,23,8.40
2014,12,16,11,24,8.40
2014,12,16,11,25,8.50
2014,12,16,11,26,8.60
2014,12,16,11,27,8.60
2014,12,16,11,28,8.60
2014,12,16,11,29,8.70
2014,12,16,11,30,8.70
2014,12,16,11,31,8.80
2014,12,16,11,32,8.80
2014,12,16,11,33,8.90
2014,12,16,11,34,8.90
2014,12,16,11,35,9.00
2014,12,16,11,36,9.00
2014,12,16,11,37,9.00
2014,12,16,11,38,9.00
2014,12,16,11,39,9.10
2014,12,16,11,40,9.10
2014,12,16,11,41,9.10
2014,12,16,11,42,9.10
2014,12,16,11,43,9.20
2014,12,16,11,44,9.20
2014,12,16,11,45,9.20
2014,12,16,11,46,9.30
2014,12,16,11,47,9.30
2014,12,16,11,48,9.30
2014,12,16,11,49,9.40
2014,12,16,11,50,9.40
2014,12,16,11,51,9.40
2014,12,16,11,52,9.50
2014,12,16,11,53,9.50
2014,12,16,11,54,9.50
2014,12,16,11,55,9.60
2014,12,16,11,56,9.60
2014,12,16,11,57,9.60
2014,12,16,11,58,9.70
2014,12,16,11,59,9.70
2014,12,16,12,00,9.70
2014,12,16,12,01,9.70
2014,12,16,12,02,9.70
2014,12,16,12,03,9.70
2014,12,16,12,04,9.70
2014,12,16,12,05,9.70
2014,12,16,12,06,9.60
2014,12,16,12,07,9.60
2014,12,16,12,08,9.60
2014,12,16,12,09,9.60
2014,12,16,12,10,9.60
2014,12,16,12,11,9.60
2014,12,16,12,12,9.60
2014,12,16,12,13,9.60
2014,12,16,12,14,9.60
2014,12,16,12,15,9.60
2014,12,16,12,16,9.60
2014,12,16,12,17,9.60
2014,12,16,12,18,9.60
2014,12,16,12,19,9.60
2014,12,16,12,20,9.60
2014,12,16,12,21,9.60
2014,12,16,12,22,9.60
2014,12,16,12,23,9.60
2014,12,16,12,24,9.50
2014,12,16,12,25,9.50
2014,12,16,12,26,9.60
2014,12,16,12,27,9.60
2014,12,16,12,28,9.60
2014,12,16,12,29,9.50
2014,12,16,12,30,9.50
2014,12,16,12,31,9.50
2014,12,16,12,32,9.50
2014,12,16,12,33,9.50
2014,12,16,12,34,9.60
2014,12,16,12,35,9.60
2014,12,16,12,36,9.60
2014,12,16,12,37,9.60
2014,12,16,12,38,9.60
2014,12,16,12,39,9.60
2014,12,16,12,40,9.50
2014,12,16,12,41,9.50
2014,12,16,12,42,9.50
2014,12,16,12,43,9.50
2014,12,16,12,44,9.50
2014,12,16,12,45,9.50
2014,12,16,12,46,9.50
2014,12,16,12,47,9.50
2014,12,16,12,48,9.50
2014,12,16,12,49,9.40
2014,12,16,12,50,9.40
2014,12,16,12,51,9.40
2014,12,16,12,52,9.40
2014,12,16,12,53,9.40
2014,12,16,12,54,9.40
2014,12,16,12,55,9.30
2014,12,16,12,56,9.30
2014,12,16,12,57,9.30
2014,12,16,12,58,9.30
2014,12,16,12,59,9.30
2014,12,16,13,00,9.30
2014,12,16,13,01,9.30
2014,12,16,13,02,9.30
2014,12,16,13,03,9.30
2014,12,16,13,04,9.30
2014,12,16,13,05,9.30
2014,12,16,13,06,9.30
2014,12,16,13,07,9.30
2014,12,16,13,08,9.30
2014,12,16,13,09,9.30
2014,12,16,13,10,9.30
2014,12,16,13,11,9.30
2014,12,16,13,12,9.30
2014,12,16,13,13,9.30
2014,12,16,13,14,9.30
2014,12,16,13,15,9.30
2014,12,16,13,16,9.30
2014,12,16,13,17,9.30
2014,12,16,13,18,9.30
2014,12,16,13,19,9.30
2014,12,16,13,20,9.30
2014,12,16,13,21,9.30
2014,12,16,13,22,9.30
2014,12,16,13,23,9.30
2014,12,16,13,24,9.20
2014,12,16,13,25,9.30
2014,12,16,13,26,9.30
2014,12,16,13,27,9.20
2014,12,16,13,28,9.20
2014,12,16,13,29,9.20
2014,12,16,13,30,9.20
2014,12,16,13,31,9.20
2014,12,16,13,32,9.30
2014,12,16,13,33,9.30
2014,12,16,13,34,9.30
2014,12,16,13,35,9.30
2014,12,16,13,36,9.30
2014,12,16,13,37,9.30
2014,12,16,13,38,9.30
2014,12,16,13,39,9.30
2014,12,16,13,40,9.30
2014,12,16,13,41,9.30
2014,12,16,13,42,9.30
2014,12,16,13,43,9.30
2014,12,16,13,44,9.30
2014,12,16,13,45,9.30
2014,12,16,13,46,9.30
2014,12,16,13,47,9.30
2014,12,16,13,48,9.30
2014,12,16,13,49,9.30
2014,12,16,13,50,9.30
2014,12,16,13,51,9.30
2014,12,16,13,52,9.30
2014,12,16,13,53,9.30
2014,12,16,13,54,9.30
2014,12,16,13,55,9.30
2014,12,16,13,56,9.30
2014,12,16,13,57,9.30
2014,12,16,13,58,9.30
2014,12,16,13,59,9.30
2014,12,16,14,00,9.30
2014,12,16,14,01,9.30
2014,12,16,14,02,9.30
2014,12,16,14,03,9.30
2014,12,16,14,04,9.30
2014,12,16,14,05,9.30
2014,12,16,14,06,9.30
2014,12,16,14,07,9.30
2014,12,16,14,08,9.30
2014,12,16,14,09,9.30
2014,12,16,14,10,9.30
2014,12,16,14,11,9.30
2014,12,16,14,12,9.30
2014,12,16,14,13,9.30
2014,12,16,14,14,9.30
2014,12,16,14,15,9.30
2014,12,16,14,16,9.30
2014,12,16,14,17,9.30
2014,12,16,14,18,9.30
2014,12,16,14,19,9.30
2014,12,16,14,20,9.30
2014,12,16,14,21,9.30
2014,12,16,14,22,9.20
2014,12,16,14,23,9.20
2014,12,16,14,24,9.20
2014,12,16,14,25,9.20
2014,12,16,14,26,9.20
2014,12,16,14,27,9.20
2014,12,16,14,28,9.20
2014,12,16,14,29,9.20
2014,12,16,14,30,9.20
2014,12,16,14,31,9.20
2014,12,16,14,32,9.20
2014,12,16,14,33,9.20
2014,12,16,14,34,9.20
2014,12,16,14,35,9.20
2014,12,16,14,36,9.20
2014,12,16,14,37,9.20
2014,12,16,14,38,9.20
2014,12,16,14,39,9.20
2014,12,16,14,40,9.20
2014,12,16,14,41,9.10
2014,12,16,14,42,9.10
2014,12,16,14,43,9.10
2014,12,16,14,44,9.10
2014,12,16,14,45,9.10
2014,12,16,14,46,9.10
2014,12,16,14,47,9.10
2014,12,16,14,48,9.10
2014,12,16,14,49,9.10
2014,12,16,14,50,9.10
2014,12,16,14,51,9.10
2014,12,16,14,52,9.10
2014,12,16,14,53,9.10
2014,12,16,14,54,9.10
2014,12,16,14,55,9.20
2014,12,16,14,56,9.20
2014,12,16,14,57,9.20
2014,12,16,14,58,9.20
2014,12,16,14,59,9.20
2014,12,16,15,00,9.20
2014,12,16,15,01,9.20
2014,12,16,15,02,9.20
2014,12,16,15,03,9.20
2014,12,16,15,04,9.20
2014,12,16,15,05,9.20
2014,12,16,15,06,9.20
2014,12,16,15,07,9.30
2014,12,16,15,08,9.30
2014,12,16,15,09,9.30
2014,12,16,15,10,9.30
2014,12,16,15,11,9.30
2014,12,16,15,12,9.40
2014,12,16,15,13,9.40
2014,12,16,15,14,9.40
2014,12,16,15,15,9.40
2014,12,16,15,16,9.40
2014,12,16,15,17,9.40
2014,12,16,15,18,9.40
2014,12,16,15,19,9.40
2014,12,16,15,20,9.40
2014,12,16,15,21,9.40
2014,12,16,15,22,9.40
2014,12,16,15,23,9.40
2014,12,16,15,24,9.30
2014,12,16,15,25,9.30
2014,12,16,15,26,9.30
2014,12,16,15,27,9.30
2014,12,16,15,28,9.30
2014,12,16,15,29,9.30
2014,12,16,15,30,9.20
2014,12,16,15,31,9.20
2014,12,16,15,32,9.20
2014,12,16,15,33,9.20
2014,12,16,15,34,9.20
2014,12,16,15,35,9.10
2014,12,16,15,36,9.10
2014,12,16,15,37,9.10
2014,12,16,15,38,9.10
2014,12,16,15,39,9.10
2014,12,16,15,40,9.10
2014,12,16,15,41,9.00
2014,12,16,15,42,9.00
2014,12,16,15,43,9.00
2014,12,16,15,44,9.00
2014,12,16,15,45,9.00
2014,12,16,15,46,9.00
2014,12,16,15,47,9.00
2014,12,16,15,48,9.00
2014,12,16,15,49,9.00
2014,12,16,15,50,8.90
2014,12,16,15,51,8.90
2014,12,16,15,52,8.90
2014,12,16,15,53,8.90
2014,12,16,15,54,8.90
2014,12,16,15,55,8.90
2014,12,16,15,56,8.90
2014,12,16,15,57,8.90
2014,12,16,15,58,8.90
2014,12,16,15,59,8.90
2014,12,16,16,00,8.90
2014,12,16,16,01,8.90
2014,12,16,16,02,8.90
2014,12,16,16,03,8.90
2014,12,16,16,04,8.90
2014,12,16,16,05,8.90
2014,12,16,16,06,8.80
2014,12,16,16,07,8.80
2014,12,16,16,08,8.80
2014,12,16,16,09,8.80
2014,12,16,16,10,8.80
2014,12,16,16,11,8.80
2014,12,16,16,12,8.80
2014,12,16,16,13,8.80
2014,12,16,16,14,8.80
2014,12,16,16,15,8.80
2014,12,16,16,16,8.80
2014,12,16,16,17,8.80
2014,12,16,16,18,8.80
2014,12,16,16,19,8.80
2014,12,16,16,20,8.80
2014,12,16,16,21,8.80
2014,12,16,16,22,8.80
2014,12,16,16,23,8.80
2014,12,16,16,24,8.70
2014,12,16,16,25,8.70
2014,12,16,16,26,8.70
2014,12,16,16,27,8.70
2014,12,16,16,28,8.70
2014,12,16,16,29,8.70
2014,12,16,16,30,8.70
2014,12,16,16,31,8.70
2014,12,16,16,32,8.70
2014,12,16,16,33,8.70
2014,12,16,16,34,8.70
2014,12,16,16,35,8.70
2014,12,16,16,36,8.70
2014,12,16,16,37,8.70
2014,12,16,16,38,8.70
2014,12,16,16,39,8.80
2014,12,16,16,40,8.80
2014,12,16,16,41,8.80
2014,12,16,16,42,8.80
2014,12,16,16,43,8.80
2014,12,16,16,44,8.80
2014,12,16,16,45,8.80
2014,12,16,16,46,8.80
2014,12,16,16,47,8.80
2014,12,16,16,48,8.80
2014,12,16,16,49,8.80
2014,12,16,16,50,8.80
2014,12,16,16,51,8.80
2014,12,16,16,52,8.80
2014,12,16,16,53,8.80
2014,12,16,16,54,8.80
2014,12,16,16,55,8.80
2014,12,16,16,56,8.80
2014,12,16,16,57,8.80
2014,12,16,16,58,8.80
2014,12,16,16,59,8.80
2014,12,16,17,00,8.80
2014,12,16,17,01,8.80
2014,12,16,17,02,8.80
2014,12,16,17,03,8.80
2014,12,16,17,04,8.80
2014,12,16,17,05,8.80
2014,12,16,17,06,8.70
2014,12,16,17,07,8.70
2014,12,16,17,08,8.70
2014,12,16,17,09,8.70
2014,12,16,17,10,8.70
2014,12,16,17,11,8.70
2014,12,16,17,12,8.70
2014,12,16,17,13,8.70
2014,12,16,17,14,8.70
2014,12,16,17,15,8.70
2014,12,16,17,16,8.70
2014,12,16,17,17,8.70
2014,12,16,17,18,8.70
2014,12,16,17,19,8.70
2014,12,16,17,20,8.70
2014,12,16,17,21,8.70
2014,12,16,17,22,8.70
2014,12,16,17,23,8.70
2014,12,16,17,24,8.70
2014,12,16,17,25,8.70
2014,12,16,17,26,8.70
2014,12,16,17,27,8.70
2014,12,16,17,28,8.70
2014,12,16,17,29,8.70
2014,12,16,17,30,8.70
2014,12,16,17,31,8.70
2014,12,16,17,32,8.70
2014,12,16,17,33,8.70
2014,12,16,17,34,8.70
2014,12,16,17,35,8.70
2014,12,16,17,36,8.70
2014,12,16,17,37,8.70
2014,12,16,17,38,8.70
2014,12,16,17,39,8.70
2014,12,16,17,40,8.70
2014,12,16,17,41,8.70
2014,12,16,17,42,8.70
2014,12,16,17,43,8.70
2014,12,16,17,44,8.70
2014,12,16,17,45,8.70
2014,12,16,17,46,8.70
2014,12,16,17,47,8.70
2014,12,16,17,48,8.70
2014,12,16,17,49,8.70
2014,12,16,17,50,8.70
2014,12,16,17,51,8.70
2014,12,16,17,52,8.70
2014,12,16,17,53,8.70
2014,12,16,17,54,8.70
2014,12,16,17,55,8.70
2014,12,16,17,56,8.70
2014,12,16,17,57,8.70
2014,12,16,17,58,8.70
2014,12,16,17,59,8.70
2014,12,16,18,00,8.70
2014,12,16,18,01,8.70
2014,12,16,18,02,8.70
2014,12,16,18,03,8.70
2014,12,16,18,04,8.70
2014,12,16,18,05,8.70
2014,12,16,18,06,8.70
2014,12,16,18,07,8.70
2014,12,16,18,08,8.70
2014,12,16,18,09,8.70
2014,12,16,18,10,8.70
2014,12,16,18,11,8.70
2014,12,16,18,12,8.70
2014,12,16,18,13,8.70
2014,12,16,18,14,8.70
2014,12,16,18,15,8.70
2014,12,16,18,16,8.60
2014,12,16,18,17,8.60
2014,12,16,18,18,8.60
2014,12,16,18,19,8.60
2014,12,16,18,20,8.60
2014,12,16,18,21,8.60
2014,12,16,18,22,8.60
2014,12,16,18,23,8.60
2014,12,16,18,24,8.60
2014,12,16,18,25,8.60
2014,12,16,18,26,8.70
2014,12,16,18,27,8.60
2014,12,16,18,28,8.60
2014,12,16,18,29,8.60
2014,12,16,18,30,8.60
2014,12,16,18,31,8.60
2014,12,16,18,32,8.60
2014,12,16,18,33,8.60
2014,12,16,18,34,8.50
2014,12,16,18,35,8.50
2014,12,16,18,36,8.50
2014,12,16,18,37,8.40
2014,12,16,18,38,8.40
2014,12,16,18,39,8.30
2014,12,16,18,40,8.30
2014,12,16,18,41,8.30
2014,12,16,18,42,8.30
2014,12,16,18,43,8.20
2014,12,16,18,44,8.20
2014,12,16,18,45,8.20
2014,12,16,18,46,8.20
2014,12,16,18,47,8.10
2014,12,16,18,48,8.10
2014,12,16,18,49,8.10
2014,12,16,18,50,8.10
2014,12,16,18,51,8.10
2014,12,16,18,52,8.00
2014,12,16,18,53,8.00
2014,12,16,18,54,8.00
2014,12,16,18,55,8.00
2014,12,16,18,56,8.00
2014,12,16,18,57,8.00
2014,12,16,18,58,7.90
2014,12,16,18,59,7.90
2014,12,16,19,00,7.90
2014,12,16,19,01,7.90
2014,12,16,19,02,7.90
2014,12,16,19,03,7.90
2014,12,16,19,04,7.90
2014,12,16,19,05,7.90
2014,12,16,19,06,7.90
2014,12,16,19,07,7.90
2014,12,16,19,08,7.80
2014,12,16,19,09,7.80
2014,12,16,19,10,7.80
2014,12,16,19,11,7.80
2014,12,16,19,12,7.80
2014,12,16,19,13,7.80
2014,12,16,19,14,7.80
2014,12,16,19,15,7.80
2014,12,16,19,16,7.70
2014,12,16,19,17,7.70
2014,12,16,19,18,7.70
2014,12,16,19,19,7.70
2014,12,16,19,20,7.70
2014,12,16,19,21,7.70
2014,12,16,19,22,7.70
2014,12,16,19,23,7.70
2014,12,16,19,24,7.60
2014,12,16,19,25,7.60
2014,12,16,19,26,7.60
2014,12,16,19,27,7.60
2014,12,16,19,28,7.60
2014,12,16,19,29,7.60
2014,12,16,19,30,7.60
2014,12,16,19,31,7.60
2014,12,16,19,32,7.60
2014,12,16,19,33,7.60
2014,12,16,19,34,7.60
2014,12,16,19,35,7.60
2014,12,16,19,36,7.60
2014,12,16,19,37,7.60
2014,12,16,19,38,7.60
2014,12,16,19,39,7.60
2014,12,16,19,40,7.50
2014,12,16,19,41,7.60
2014,12,16,19,42,7.50
2014,12,16,19,43,7.60
2014,12,16,19,44,7.60
2014,12,16,19,45,7.60
2014,12,16,19,46,7.60
2014,12,16,19,47,7.60
2014,12,16,19,48,7.60
2014,12,16,19,49,7.60
2014,12,16,19,50,7.60
2014,12,16,19,51,7.60
2014,12,16,19,52,7.60
2014,12,16,19,53,7.60
2014,12,16,19,54,7.60
2014,12,16,19,55,7.60
2014,12,16,19,56,7.60
2014,12,16,19,57,7.60
2014,12,16,19,58,7.60
2014,12,16,19,59,7.60
2014,12,16,20,00,7.50
2014,12,16,20,01,7.60
2014,12,16,20,02,7.50
2014,12,16,20,03,7.50
2014,12,16,20,04,7.50
2014,12,16,20,05,7.50
2014,12,16,20,06,7.50
2014,12,16,20,07,7.50
2014,12,16,20,08,7.50
2014,12,16,20,09,7.50
2014,12,16,20,10,7.50
2014,12,16,20,11,7.50
2014,12,16,20,12,7.50
2014,12,16,20,13,7.50
2014,12,16,20,14,7.40
2014,12,16,20,15,7.40
2014,12,16,20,16,7.40
2014,12,16,20,17,7.40
2014,12,16,20,18,7.40
2014,12,16,20,19,7.40
2014,12,16,20,20,7.40
2014,12,16,20,21,7.30
2014,12,16,20,22,7.30
2014,12,16,20,23,7.30
2014,12,16,20,24,7.30
2014,12,16,20,25,7.30
2014,12,16,20,26,7.30
2014,12,16,20,27,7.30
2014,12,16,20,28,7.30
2014,12,16,20,29,7.20
2014,12,16,20,30,7.20
2014,12,16,20,31,7.20
2014,12,16,20,32,7.20
2014,12,16,20,33,7.20
2014,12,16,20,34,7.20
2014,12,16,20,35,7.10
2014,12,16,20,36,7.10
2014,12,16,20,37,7.10
2014,12,16,20,38,7.10
2014,12,16,20,39,7.10
2014,12,16,20,40,7.10
2014,12,16,20,41,7.00
2014,12,16,20,42,7.00
2014,12,16,20,43,7.00
2014,12,16,20,44,7.00
2014,12,16,20,45,7.00
2014,12,16,20,46,6.90
2014,12,16,20,47,6.90
2014,12,16,20,48,6.90
2014,12,16,20,49,6.90
2014,12,16,20,50,6.90
2014,12,16,20,51,6.90
2014,12,16,20,52,6.90
2014,12,16,20,53,6.80
2014,12,16,20,54,6.80
2014,12,16,20,55,6.80
2014,12,16,20,56,6.80
2014,12,16,20,57,6.80
2014,12,16,20,58,6.80
2014,12,16,20,59,6.70
2014,12,16,21,00,6.70
2014,12,16,21,01,6.70
2014,12,16,21,02,6.70
2014,12,16,21,03,6.70
2014,12,16,21,04,6.70
2014,12,16,21,05,6.70
2014,12,16,21,06,6.70
2014,12,16,21,07,6.70
2014,12,16,21,08,6.70
2014,12,16,21,09,6.70
2014,12,16,21,10,6.70
2014,12,16,21,11,6.70
2014,12,16,21,12,6.70
2014,12,16,21,13,6.70
2014,12,16,21,14,6.70
2014,12,16,21,15,6.60
2014,12,16,21,16,6.60
2014,12,16,21,17,6.60
2014,12,16,21,18,6.60
2014,12,16,21,19,6.60
2014,12,16,21,20,6.60
2014,12,16,21,21,6.60
2014,12,16,21,22,6.60
2014,12,16,21,23,6.60
2014,12,16,21,24,6.60
2014,12,16,21,25,6.60
2014,12,16,21,26,6.50
2014,12,16,21,27,6.60
2014,12,16,21,28,6.50